Starlink 31108

operational
NORAD ID: 58738 Int'l Des: 2024-005 Owner: SPXS Country: US Constellation: starlink
LEOCIRCULAR

Starlink 31108について

説明を読み込み中...

リアルタイム位置

3D地球を読み込み中...

次回通過

高度履歴

Altitude vs Time

uPlot chart will show altitude changes over time

軌道要素

1 58738U 24005L 25257.95536764 -.00000238 00000-0 -25699-5 0 9999
2 58738 43.0047 96.7636 0001293 270.6746 89.3948 15.02531065 93972
Epoch: Sep 14, 2025 • Age: 14 hours

現在のステータス

高度 571.5 km
速度 7.58 km/s
衛星直下点 -43.01°S, 169.84°E
打ち上げ日 Jan 7, 2024
運用期間 1.6 years
タイプ internet

技術仕様

分類 Payload
質量 730.00 kg
乾燥質量 700.00 kg
総質量 730.00 kg
長さ 0.30 m
直径 4.10 m
スパン 29.00 m
形状 Box + pan
製造者 SPXS
バスタイプ Starlink V2M
フェーズステータス In Orbit
所有者/国 SPXS/US

大規模コンステレーション

Loading constellations...